Flag for Germany Weather past 2 weeks in Oranienburg, Brandenburg, Germany

Now
51 °F

Partly sunny.


Feels Like: 51 °F
Forecast: 46 / 58 °F
Wind: 2 mph from West

Location: Berlin-Tegel

Current Time: Apr 26, 2015 at 7:07:10 AM

Latest Report: Apr 26, 2015 at 6:00 AM


Visibility: 4 mi

Pressure: 29.76 "Hg

Humidity: 95%

Dew point: 50 °F

Location of OranienburgLocation

Historic Weather in Oranienburg — Graph

°F

Oranienburg temperature yesterday

Maximum temperature yesterday: 74 °F (at 2:00 PM)
Minimum temperature yesterday: 49 °F (at 6:00 AM)
Average temperature yesterday: 62 °F

Past Weeks' High & Low Weather Summary

 TemperatureHumidityPressure
High74 °F (Apr 25, 2:00 PM)97% (Apr 18, 7:00 AM)30.43 "Hg (Apr 18, 7:00 AM)
Low33 °F (Apr 19, 3:00 AM)19% (Apr 21, 3:00 PM)29.70 "Hg (Apr 25, 5:00 PM)
Average52 °F58%30.11 "Hg
* Reported Apr 11 5:00 AM — Apr 26 5:00 AM, Oranienburg, Weather by CustomWeather, © 2015

Note: Actual official high and low records may vary slightly from our data, if they occured in-between our weather recording intervals... More about our weather records

Advertising

Oranienburg weather history for previous 24 hours

 ConditionsComfort  
Time TempWeatherWind HumidityBarometerVisibility
5:00 AM
Sun, Apr 26
52 °FOvercast.3 mph96%29.76 "Hg11 mi
4:00 AM52 °FLow clouds.2 mph96%29.77 "Hg12 mi
3:00 AM53 °FLow clouds.2 mph95%29.76 "Hg12 mi
2:00 AM54 °FLight rain. Low clouds.5 mph92%29.76 "Hg11 mi
1:00 AM55 °FLight rain. Low clouds.3 mph85%29.76 "Hg22 mi
12:00 AM57 °FOvercast.3 mph78%29.76 "Hg25 mi
11:00 PM
Sat, Apr 25
59 °FLight rain. Overcast.7 mph71%29.75 "Hg22 mi
10:00 PM62 °FOvercast.6 mph56%29.74 "Hg25 mi
9:00 PM63 °FLight rain. Overcast.5 mph47%29.74 "Hg22 mi
8:00 PM64 °FLight rain. Overcast.2 mph44%29.72 "Hg25 mi
7:00 PM65 °FLight rain. Overcast.3 mph42%29.72 "Hg25 mi
6:00 PM68 °FOvercast.8 mph32%29.72 "Hg22 mi
5:00 PM71 °FOvercast.6 mph26%29.70 "Hg19 mi
4:00 PM72 °FOvercast.8 mph24%29.71 "Hg17 mi
3:00 PM73 °FOvercast.8 mph24%29.73 "Hg19 mi
2:00 PM74 °FOvercast.7 mph24%29.74 "Hg17 mi
1:00 PM71 °FOvercast.6 mph32%29.76 "Hg17 mi
12:00 PM70 °FOvercast.6 mph31%29.78 "Hg17 mi
11:00 AM67 °FOvercast.5 mph35%29.79 "Hg19 mi
10:00 AM62 °FOvercast.3 mph42%29.80 "Hg19 mi
9:00 AM58 °FOvercast.2 mph48%29.80 "Hg19 mi
8:00 AM54 °FPartly sunny.3 mph54%29.80 "Hg19 mi
7:00 AM51 °FScattered clouds.2 mph63%29.81 "Hg16 mi
Weather by CustomWeather, © 2015

See weather overviewHow to use our weather pages